#datint,netname,site,siteID,timestamp,IntT,BattV,AirT2,AirT,AirT_Avg,AirT_Max,AirT_Min,RH_Avg,RH_Max,RH_Min,EA_Avg,Td_Avg,Td_Max,Td_Min,WindS_Smp,WindS_Avg,WindD_Avg,WindD_SD,WindS_Max,ETo,ETr,SoilT4,SoilT8,SoilVWC8,SolarW_Avg,wetstate_Avg,wetT_Avg,Precip_accum,Precip_WPG,Precip_TB
15min,AgWx,beryljct,423,08JUL2018:00:00:00,72.6,13.02,68.9,68.8,68.7,69.9,67.4,56,61,51,1.321,52.4,53.8,51.1,2.609,3.8,182,3.5,5.0,0.00016,0.00026,82.3,80.1,12,0,0,66.8,13.84,0.00,0.00
15min,AgWx,beryljct,423,08JUL2018:00:15:00,71.5,13.01,68.9,71.3,68.6,71.6,66.9,55,62,45,1.233,51.9,53.4,49.1,3.113,3.3,187,13,4.2,0.00011,0.00020,82.1,80.1,12,0,0,66.6,13.84,0.00,0.00
15min,AgWx,beryljct,423,08JUL2018:00:30:00,70.8,13,68.2,67.0,68.6,71.1,66.3,55,62,48,1.296,51.8,53.1,50.4,3.946,3.4,168,17,4.4,0.00013,0.00022,81.8,80.1,11,0,0,66.9,13.84,0.00,0.00
15min,AgWx,beryljct,423,08JUL2018:00:45:00,70.0,12.98,66.8,67.1,66.8,67.6,65.9,59,62,56,1.320,52.1,53.0,51.2,3.508,3.4,197,9.5,5.3,0.00009,0.00017,81.5,80.0,11,0,0,65.1,13.84,0.00,0.00
15min,AgWx,beryljct,423,08JUL2018:01:00:00,69.4,12.98,67.2,64.9,67.3,68.4,64.9,58,66,54,1.382,52.1,53.5,50.9,4.143,3.0,195,6.2,4.1,0.00006,0.00012,81.2,80.0,11,0,0,65.3,13.84,0.00,0.00
15min,AgWx,beryljct,423,08JUL2018:01:15:00,69.1,12.98,70.2,72.9,69.2,73.0,64.8,52,66,41,1.127,50.5,53.3,47.7,3.135,4.0,184,10,4.7,0.00021,0.00034,80.9,79.9,11,0,0,66.8,13.84,0.00,0.00
15min,AgWx,beryljct,423,08JUL2018:01:30:00,69.1,12.97,67.4,67.0,68.0,72.9,65.9,53,62,41,1.233,50.3,53.8,47.8,2.674,3.5,300,45,5.9,0.00015,0.00025,80.7,79.8,11,0,0,66.8,13.84,0.00,0.00
15min,AgWx,beryljct,423,08JUL2018:01:45:00,68.6,12.96,67.0,67.9,66.8,71.1,64.2,57,64,44,1.218,50.9,53.1,47.6,0,1.9,240,12,3.7,-0.00005,-0.00004,80.4,79.8,11,0,0,65.0,13.84,0.00,0.00
15min,AgWx,beryljct,423,08JUL2018:02:00:00,68.3,12.94,69.0,69.7,68.8,69.9,67.6,52,56,49,1.258,50.3,51.8,49.4,1.535,0.6,304,23,3.2,-0.00024,-0.00035,80.1,79.7,11,0,0,65.4,13.84,0.00,0.00
15min,AgWx,beryljct,423,08JUL2018:02:15:00,67.7,12.95,64.1,62.7,64.9,69.4,62.7,62,70,52,1.352,51.5,52.7,50.6,2.762,3.1,89,28,4.2,0.00004,0.00009,79.9,79.6,11,0,0,63.7,13.84,0.00,0.00
15min,AgWx,beryljct,423,08JUL2018:02:30:00,67.0,12.94,65.9,64.6,65.6,67.5,62.3,56,70,50,1.289,49.6,52.7,47.9,0.658,0.7,212,22,3.1,-0.00022,-0.00032,79.6,79.5,11,0,0,62.4,13.84,0.00,0.00
15min,AgWx,beryljct,423,08JUL2018:02:45:00,66.2,12.93,62.6,60.6,63.0,65.0,60.5,65,75,56,1.330,50.9,52.8,48.5,4.845,1.6,130,57,5.0,-0.00012,-0.00015,79.4,79.5,11,0,0,61.4,13.84,0.00,0.00
15min,AgWx,beryljct,423,08JUL2018:03:00:00,65.3,12.93,61.3,62.6,61.1,62.6,60.1,69,73,63,1.225,51.0,51.9,49.7,4.077,2.8,74,13,6.6,-0.00003,-0.00002,79.1,79.4,11,0,0,60.1,13.84,0.00,0.00
15min,AgWx,beryljct,423,08JUL2018:03:15:00,64.8,12.93,62.4,60.4,62.4,63.8,60.3,66,75,61,1.320,50.9,52.3,49.9,2.828,2.0,126,52,4.1,-0.00008,-0.00008,78.9,79.3,11,0,0,60.5,13.84,0.00,0.00
15min,AgWx,beryljct,423,08JUL2018:03:30:00,64.1,12.91,60.6,62.7,60.2,62.7,59.2,74,79,62,1.216,51.8,52.7,49.5,3.749,3.0,198,16,4.5,-0.00005,-0.00004,78.6,79.2,11,0,0,59.3,13.84,0.00,0.00
15min,AgWx,beryljct,423,08JUL2018:03:45:00,63.7,12.92,61.3,60.4,61.4,63.2,60.3,69,75,62,1.351,51.1,52.6,49.6,0.57,2.1,182,5.1,3.8,-0.00008,-0.00009,78.4,79.1,11,0,0,60.1,13.84,0.00,0.00
15min,AgWx,beryljct,423,08JUL2018:04:00:00,63.3,12.92,60.9,61.3,60.7,61.3,60.2,74,76,70,1.301,52.5,52.8,51.6,3.595,2.0,196,14,3.8,-0.00012,-0.00015,78.2,79.0,11,0,0,59.6,13.84,0.00,0.00
15min,AgWx,beryljct,423,08JUL2018:04:15:00,63.2,12.91,62.0,61.6,61.8,62.7,61.2,69,72,65,1.297,51.6,52.1,50.8,0.767,2.4,234,1.9,4.2,-0.00006,-0.00005,77.9,78.9,11,0,0,60.7,13.84,0.00,0.00
15min,AgWx,beryljct,423,08JUL2018:04:30:00,63.3,12.91,64.1,62.4,63.9,66.7,61.6,61,69,51,1.261,49.9,51.7,47.8,2.017,0.8,228,0.9,2.0,-0.00021,-0.00030,77.7,78.8,11,0,0,62.0,13.84,0.00,0.00
15min,AgWx,beryljct,423,08JUL2018:04:45:00,63.3,12.9,61.0,61.5,61.0,62.3,60.3,72,78,66,1.374,52.0,53.4,50.6,1.096,1.2,259,33,3.4,-0.00017,-0.00023,77.4,78.7,11,0,0,61.0,13.84,0.00,0.00
15min,AgWx,beryljct,423,08JUL2018:05:00:00,63.6,12.91,63.0,62.5,62.8,64.7,61.5,64,74,57,1.279,50.2,53.1,49.0,1.469,2.7,322,17,6.1,-0.00001,0.00002,77.2,78.6,11,0,0,61.8,13.84,0.00,0.00
15min,AgWx,beryljct,423,08JUL2018:05:15:00,63.8,12.91,62.3,62.2,62.3,64.6,60.2,67,79,57,1.272,51.1,53.8,48.0,0,1.0,332,63,3.5,-0.00018,-0.00025,77.0,78.5,11,0,0,62.4,13.84,0.00,0.00
15min,AgWx,beryljct,423,08JUL2018:05:30:00,63.9,12.9,62.5,62.7,62.3,63.3,61.5,65,75,57,1.219,50.4,53.7,47.6,1.315,1.8,48,60,3.3,-0.00010,-0.00012,76.8,78.4,11,0,0,62.1,13.84,0.00,0.00
15min,AgWx,beryljct,423,08JUL2018:05:45:00,64.1,12.89,61.6,61.5,61.6,62.6,61.0,73,78,64,1.399,52.8,54.3,50.1,0,0.2,53,0.0,1.1,0.00002,0.00003,76.6,78.3,11,0,0,62.0,13.84,0.00,0.00
15min,AgWx,beryljct,423,08JUL2018:06:00:00,64.1,12.89,62.2,61.7,62.1,63.0,61.5,71,77,58,1.332,52.3,54.4,47.5,0,0.1,53,0.0,0.6,0.00001,0.00002,76.5,78.2,11,0,0,61.8,13.84,0.00,0.00
15min,AgWx,beryljct,423,08JUL2018:06:15:00,64.0,12.89,61.5,61.0,61.5,62.2,61.0,75,78,68,1.421,53.6,54.7,51.2,1.929,1.8,174,59,3.0,0.00014,0.00024,76.3,78.1,11,1,0,61.6,13.84,0.00,0.00
15min,AgWx,beryljct,423,08JUL2018:06:30:00,63.9,12.9,62.2,63.7,61.8,63.8,60.9,71,79,57,1.241,52.4,54.5,48.1,4.428,2.4,201,8.9,4.7,0.00023,0.00038,76.1,78.0,11,4,0,61.7,13.84,0.00,0.00
15min,AgWx,beryljct,423,08JUL2018:06:45:00,63.9,12.91,62.5,61.7,62.6,63.7,61.5,68,74,62,1.349,51.7,53.2,50.2,2.433,3.4,220,0.1,4.5,0.00044,0.00069,76.0,77.9,11,18,0,64.4,13.84,0.00,0.00
15min,AgWx,beryljct,423,08JUL2018:07:00:00,63.9,12.93,62.7,62.2,62.5,63.9,61.5,70,75,64,1.411,52.8,54.4,51.2,0.153,1.7,216,27,2.7,0.00049,0.00063,75.9,77.8,12,51,0,67.1,13.84,0.00,0.00
15min,AgWx,beryljct,423,08JUL2018:07:15:00,64.3,12.92,63.7,63.7,63.5,65.2,62.2,68,76,62,1.314,52.6,54.7,51.5,2.017,1.9,85,8.1,3.6,0.00072,0.00090,75.7,77.7,12,93,0,73.0,13.84,0.00,0.00
15min,AgWx,beryljct,423,08JUL2018:07:30:00,65.4,12.92,64.8,64.3,64.7,65.7,63.8,70,80,58,1.558,54.5,57.7,50.1,0.329,0.5,82,4.6,2.0,0.00088,0.00098,75.6,77.6,12,142,0,80.6,13.84,0.00,0.00
15min,AgWx,beryljct,423,08JUL2018:07:45:00,67.2,12.96,65.6,66.5,65.4,66.5,64.4,74,79,71,1.583,57.0,58.4,55.7,2.302,2.4,144,3.5,3.2,0.00123,0.00144,75.4,77.5,12,188,0,84.5,13.84,0.00,0.00
15min,AgWx,beryljct,423,08JUL2018:08:00:00,69.3,12.98,67.9,68.4,67.7,68.4,66.6,70,76,66,1.634,57.6,60.3,55.7,1.82,1.9,122,37,3.0,0.00157,0.00180,75.3,77.4,12,241,0,89.6,13.84,0.00,0.00
15min,AgWx,beryljct,423,08JUL2018:08:15:00,71.7,13.02,70.4,71.6,70.1,71.7,68.5,65,72,60,1.590,58.0,61.2,54.7,0,1.5,75,12,3.0,0.00209,0.00235,75.2,77.3,12,323,0,95.8,13.83,0.00,0.00
15min,AgWx,beryljct,423,08JUL2018:08:30:00,73.8,13.06,72.6,72.1,72.5,73.6,71.4,58,65,52,1.704,56.7,60.0,54.7,2.543,0.7,321,0.0,2.6,0.00163,0.00180,75.2,77.2,12,229,0,95.8,13.83,0.00,0.00
15min,AgWx,beryljct,423,08JUL2018:08:45:00,75.4,13.13,73.5,74.8,73.3,74.8,72.0,60,68,49,1.705,58.4,61.4,54.0,1.491,2.3,156,38,3.8,0.00264,0.00302,75.1,77.1,12,378,0,98.2,13.83,0.00,0.00
15min,AgWx,beryljct,423,08JUL2018:09:00:00,77.9,13.14,75.7,75.5,75.7,76.6,74.8,57,67,48,1.837,59.3,63.6,55.2,0,0.7,155,1.9,1.8,0.00265,0.00289,75.1,77.0,11,381,0,106.2,13.83,0.00,0.00
15min,AgWx,beryljct,423,08JUL2018:09:15:00,80.1,13.28,76.5,77.2,76.5,77.3,75.5,55,62,46,1.808,59.0,62.1,54.7,0,0.2,151,0.0,1.2,0.00329,0.00353,75.1,76.9,11,484,0,109.0,13.82,0.00,0.00
15min,AgWx,beryljct,423,08JUL2018:09:30:00,82.4,13.39,78.4,79.3,78.3,79.3,77.2,52,58,43,1.599,59.1,62.5,54.8,2.411,0.3,146,14,2.4,0.00361,0.00388,75.2,76.8,11,521,0,112.5,13.82,0.00,0.00
15min,AgWx,beryljct,423,08JUL2018:09:45:00,85.0,13.56,81.3,81.0,81.4,82.9,79.3,44,53,34,1.869,57.3,62.1,51.9,0.986,1.2,73,31,4.5,0.00416,0.00460,75.3,76.8,11,573,0,118.8,13.82,0.00,0.00
15min,AgWx,beryljct,423,08JUL2018:10:00:00,86.8,13.71,83.2,83.8,83.2,84.2,80.9,39,51,32,1.385,55.6,61.4,51.5,5.634,6.3,182,31,11.9,0.00519,0.00642,75.4,76.7,11,619,0,110.6,13.82,0.00,0.00
15min,AgWx,beryljct,423,08JUL2018:10:15:00,87.7,13.85,84.4,85.0,84.5,85.3,83.7,34,42,28,1.398,53.1,58.6,48.1,6.949,8.0,201,23,13.5,0.00595,0.00755,75.6,76.6,11,678,0,106.2,13.81,0.00,0.00
15min,AgWx,beryljct,423,08JUL2018:10:30:00,88.7,13.81,85.1,84.2,85.4,86.1,84.2,34,40,29,1.583,54.2,58.0,49.1,8.72,8.1,188,17,14.1,0.00630,0.00794,75.8,76.6,11,724,0,108.9,13.81,0.00,0.00
15min,AgWx,beryljct,423,08JUL2018:10:45:00,89.2,13.82,84.6,85.4,84.8,86.0,83.6,37,43,32,1.521,55.6,60.1,52.6,5.787,7.8,194,23,12.1,0.00647,0.00805,76.1,76.5,11,767,0,108.5,13.81,0.00,0.00
15min,AgWx,beryljct,423,08JUL2018:11:00:00,89.7,13.79,85.6,86.2,85.7,86.8,84.0,34,41,28,1.429,54.0,58.1,49.9,1.841,7.9,187,22,14.0,0.00689,0.00858,76.3,76.5,11,811,0,109.0,13.81,0.00,0.00
15min,AgWx,beryljct,423,08JUL2018:11:15:00,90.5,13.8,86.3,86.8,86.5,87.7,85.2,35,42,28,1.421,55.8,60.1,50.0,11.51,7.1,204,26,11.5,0.00708,0.00862,76.6,76.4,11,853,0,112.8,13.81,0.00,0.00
15min,AgWx,beryljct,423,08JUL2018:11:30:00,91.0,13.75,86.7,87.4,86.9,87.9,86.2,33,40,27,1.555,53.9,59.8,49.8,6.16,7.8,193,18,13.9,0.00722,0.00895,77.0,76.4,11,843,0,111.6,13.81,0.00,0.00
15min,AgWx,beryljct,423,08JUL2018:11:45:00,91.6,13.73,87.6,88.3,87.8,89.0,87.1,30,37,24,1.468,52.1,57.6,46.7,4.538,5.7,200,43,11.9,0.00691,0.00837,77.4,76.4,11,820,0,113.9,13.81,0.00,0.00
15min,AgWx,beryljct,423,08JUL2018:12:00:00,92.7,13.72,88.1,86.8,88.5,89.4,86.8,32,45,23,1.895,54.1,63.4,45.9,6.73,4.4,193,43,10.0,0.00712,0.00837,77.8,76.4,11,875,0,119.6,13.80,0.00,0.00
15min,AgWx,beryljct,423,08JUL2018:12:15:00,93.1,13.75,87.6,89.8,87.6,89.8,86.1,32,42,23,1.392,53.8,60.6,46.2,7.366,5.6,157,43,9.4,0.00762,0.00907,78.3,76.5,11,937,0,116.9,13.81,0.00,0.00
15min,AgWx,beryljct,423,08JUL2018:12:30:00,94.0,13.7,89.2,88.5,89.6,91.2,88.3,28,38,21,1.203,52.2,61.3,45.5,2.324,3.0,188,70,8.8,0.00755,0.00862,78.7,76.5,11,959,0,124.7,13.80,0.00,0.00
15min,AgWx,beryljct,423,08JUL2018:12:45:00,94.6,13.36,89.0,89.4,89.3,90.5,88.6,30,39,23,1.423,53.8,61.0,47.1,5.853,5.1,222,38,10.4,0.00736,0.00874,79.3,76.5,11,890,0,118.5,13.80,0.00,0.00
15min,AgWx,beryljct,423,08JUL2018:13:00:00,94.3,13.31,88.0,88.4,88.4,90.3,85.2,31,39,22,1.092,53.4,59.2,45.1,1.228,2.9,217,44,6.9,0.00490,0.00576,79.8,76.6,11,573,0,109.0,13.81,0.00,0.00
15min,AgWx,beryljct,423,08JUL2018:13:15:00,94.9,13.31,90.2,91.6,90.2,91.6,88.6,29,38,22,1.497,53.9,61.8,45.9,4.604,4.6,209,40,11.8,0.00864,0.01004,80.4,76.7,11,1071,0,123.1,13.81,0.00,0.00
15min,AgWx,beryljct,423,08JUL2018:13:30:00,96.1,13.24,90.2,88.8,90.8,92.0,88.8,27,38,20,1.774,52.0,60.2,43.7,3.902,5.8,177,61,12.9,0.00902,0.01070,80.9,76.8,11,1093,0,120.8,13.81,0.00,0.00
15min,AgWx,beryljct,423,08JUL2018:13:45:00,96.6,13.24,88.9,90.5,89.2,91.2,87.6,33,45,23,1.403,56.2,64.6,47.5,5.524,6.0,154,23,11.3,0.00870,0.01026,81.5,76.9,11,1070,0,118.3,13.81,0.00,0.00
15min,AgWx,beryljct,423,08JUL2018:14:00:00,96.6,13.24,89.2,90.0,89.5,90.9,88.2,31,38,22,1.240,54.5,60.4,45.7,0.263,6.3,187,41,11.6,0.00751,0.00911,82.1,77.0,11,888,0,111.7,13.81,0.00,0.00
15min,AgWx,beryljct,423,08JUL2018:14:15:00,95.8,13.26,88.0,87.9,88.3,90.9,85.2,32,39,24,1.108,54.8,59.1,47.3,7.563,5.1,158,28,10.6,0.00519,0.00639,82.7,77.1,11,563,0,106.8,13.81,0.00,0.00
15min,AgWx,beryljct,423,08JUL2018:14:30:00,94.4,13.3,88.3,88.7,88.4,89.3,87.2,28,34,24,1.356,51.1,56.8,47.0,8.15,7.7,192,24,13.8,0.00520,0.00688,83.3,77.3,11,490,0,99.6,13.81,0.00,0.00
15min,AgWx,beryljct,423,08JUL2018:14:45:00,93.3,13.3,87.9,88.1,88.1,89.3,86.6,29,36,24,1.626,51.9,57.7,47.0,5.612,7.0,191,23,13.9,0.00467,0.00620,83.9,77.4,11,437,0,98.7,13.81,0.00,0.00
15min,AgWx,beryljct,423,08JUL2018:15:00:00,93.7,13.29,90.1,89.5,90.2,91.3,88.2,29,34,21,1.507,53.2,58.3,45.8,9.56,9.4,203,25,17.2,0.00901,0.01119,84.3,77.6,11,1040,0,110.5,13.81,0.00,0.00
15min,AgWx,beryljct,423,08JUL2018:15:15:00,94.4,13.25,89.1,87.7,89.6,91.7,87.7,30,38,23,1.691,54.4,59.3,48.7,7.782,9.2,180,26,13.8,0.00856,0.01064,84.7,77.8,11,992,0,108.8,13.81,0.00,0.00
15min,AgWx,beryljct,423,08JUL2018:15:30:00,95.1,13.2,90.3,90.7,90.3,92.0,87.8,31,45,22,1.299,55.1,63.7,46.8,8.09,7.9,198,24,15.9,0.00835,0.01023,85.0,78.0,11,978,0,111.8,13.81,0.00,0.00
15min,AgWx,beryljct,423,08JUL2018:15:45:00,95.6,13.28,90.1,89.8,90.5,91.7,89.6,28,37,23,1.118,52.7,61.1,47.5,11.79,9.9,213,17,19.6,0.00834,0.01059,85.3,78.1,11,932,0,108.8,13.81,0.00,0.00
15min,AgWx,beryljct,423,08JUL2018:16:00:00,96.1,13.21,90.4,90.1,90.7,92.1,88.8,28,39,19,1.309,53.2,61.6,44.0,12.74,6.9,183,51,18.8,0.00763,0.00937,85.5,78.3,11,891,0,110.3,13.81,0.00,0.00
15min,AgWx,beryljct,423,08JUL2018:16:15:00,96.4,13.2,90.9,91.5,91.1,92.0,89.9,25,32,20,1.611,50.0,57.5,44.6,5.196,9.1,179,23,18.6,0.00785,0.01004,85.7,78.5,11,864,0,106.9,13.81,0.00,0.00
15min,AgWx,beryljct,423,08JUL2018:16:30:00,96.6,13.21,90.0,91.8,90.2,91.8,89.4,29,35,22,1.108,53.2,58.2,47.2,7.432,8.9,222,20,15.2,0.00734,0.00936,85.9,78.7,11,815,0,106.1,13.81,0.00,0.00
15min,AgWx,beryljct,423,08JUL2018:16:45:00,96.9,13.19,89.7,89.9,90.2,92.2,88.8,29,35,22,1.250,53.7,58.4,46.0,6.796,7.7,225,21,13.2,0.00673,0.00852,86.1,78.9,11,762,0,105.3,13.81,0.00,0.00
15min,AgWx,beryljct,423,08JUL2018:17:00:00,97.4,13.16,90.6,91.2,90.8,91.9,90.0,28,36,21,1.460,53.0,59.4,46.3,5.546,5.6,217,25,10.4,0.00665,0.00813,86.3,79.0,11,786,0,107.7,13.81,0.00,0.00
15min,AgWx,beryljct,423,08JUL2018:17:15:00,97.4,13.16,89.9,90.1,90.2,91.2,89.6,28,33,23,1.254,52.9,57.2,47.4,10.33,8.5,207,24,13.4,0.00634,0.00823,86.5,79.2,11,686,0,103.2,13.81,0.00,0.00
15min,AgWx,beryljct,423,08JUL2018:17:30:00,96.7,13.21,89.7,89.9,90.0,90.9,89.2,26,30,22,1.362,50.8,54.1,46.2,5.7,9.8,202,14,16.0,0.00631,0.00846,86.8,79.4,11,649,0,99.9,13.81,0.00,0.00
15min,AgWx,beryljct,423,08JUL2018:17:45:00,96.4,13.2,89.9,90.2,90.1,91.0,88.8,27,33,22,1.210,51.2,56.3,47.2,10.74,9.0,198,24,15.5,0.00579,0.00775,87.1,79.6,11,597,0,99.3,13.81,0.00,0.00
15min,AgWx,beryljct,423,08JUL2018:18:00:00,95.9,13.19,89.7,89.4,90.0,90.6,88.9,25,27,23,1.225,49.6,52.0,47.3,10.17,10.1,195,16,14.8,0.00565,0.00781,87.4,79.7,11,546,0,96.7,13.81,0.00,0.00
15min,AgWx,beryljct,423,08JUL2018:18:15:00,95.4,13.19,89.6,90.0,89.8,90.7,88.3,26,32,21,1.286,50.3,54.9,44.7,7.41,7.3,202,14,13.2,0.00481,0.00646,87.6,79.9,11,506,0,97.3,13.81,0.00,0.00
15min,AgWx,beryljct,423,08JUL2018:18:30:00,95.1,13.2,89.1,89.7,89.4,91.2,87.5,27,35,21,1.275,50.6,58.0,45.3,5.327,6.7,221,30,13.9,0.00453,0.00606,87.8,80.1,11,485,0,96.5,13.81,0.00,0.00
15min,AgWx,beryljct,423,08JUL2018:18:45:00,95.2,13.21,90.2,90.9,90.3,91.8,88.5,26,35,21,1.212,50.9,59.1,45.7,7.892,5.7,198,19,12.2,0.00438,0.00574,88.0,80.2,11,489,0,99.2,13.81,0.00,0.00
15min,AgWx,beryljct,423,08JUL2018:19:00:00,94.8,13.23,88.1,87.6,88.7,91.0,86.0,27,35,21,1.569,50.8,56.7,43.6,8.57,5.6,210,60,13.6,0.00201,0.00318,88.1,80.4,11,180,0,93.8,13.81,0.00,0.00
15min,AgWx,beryljct,423,08JUL2018:19:15:00,91.8,13.16,82.2,83.5,82.7,86.9,81.3,36,40,31,1.215,52.7,56.6,49.8,15.63,11.1,13,34,16.9,0.00230,0.00399,88.2,80.5,11,54,0,83.8,13.82,0.01,0.00
15min,AgWx,beryljct,423,08JUL2018:19:30:00,89.2,13.15,83.6,83.5,83.7,84.1,83.5,32,32,30,1.239,50.4,51.3,49.6,14.86,15.1,4.3,9.5,21.4,0.00286,0.00516,88.3,80.7,11,45,0,83.8,13.82,0.00,0.00
15min,AgWx,beryljct,423,08JUL2018:19:45:00,87.5,13.14,83.1,82.8,83.3,83.6,82.7,32,33,31,1.278,50.6,51.3,49.7,8.24,14.7,2.0,20,21.7,0.00253,0.00475,88.3,80.8,11,40,0,83.1,13.82,0.00,0.00
15min,AgWx,beryljct,423,08JUL2018:20:00:00,86.4,13.14,82.9,82.7,83.0,83.2,82.6,33,34,32,1.258,50.8,51.8,50.1,18.06,15.4,4.5,13,21.8,0.00258,0.00483,88.2,81.0,11,39,0,82.8,13.82,0.00,0.00
15min,AgWx,beryljct,423,08JUL2018:20:15:00,85.4,13.13,82.0,81.6,82.2,82.7,81.6,33,34,33,1.239,50.4,50.9,50.0,14.86,16.1,359,13,21.2,0.00164,0.00205,88.0,81.1,12,36,0,81.9,13.82,0.00,0.00
15min,AgWx,beryljct,423,08JUL2018:20:30:00,84.3,13.13,80.7,80.4,81.0,81.6,80.4,35,36,34,1.283,50.8,51.3,50.2,14.4,12.9,3.0,13,19.3,0.00136,0.00175,87.8,81.2,12,31,0,80.3,13.82,0.00,0.00
15min,AgWx,beryljct,423,08JUL2018:20:45:00,83.2,13.1,79.4,79.2,79.6,80.4,78.5,37,39,36,1.260,51.1,52.1,50.5,8.29,11.4,354,12,15.1,0.00117,0.00153,87.6,81.3,12,19,0,78.8,13.82,0.00,0.00
15min,AgWx,beryljct,423,08JUL2018:21:00:00,82.1,13.08,78.8,78.7,78.9,79.4,78.0,37,40,36,1.252,50.7,51.7,50.2,7.958,9.1,355,8.9,15.2,0.00093,0.00127,87.3,81.4,12,7,0,77.7,13.82,0.00,0.00
15min,AgWx,beryljct,423,08JUL2018:21:15:00,81.0,13.06,78.0,77.8,78.1,78.8,77.6,38,40,37,1.262,50.6,51.7,50.4,6.971,7.6,358,15,11.0,0.00076,0.00107,87.0,81.5,12,1,0,76.7,13.83,0.00,0.00
15min,AgWx,beryljct,423,08JUL2018:21:30:00,79.7,13.08,74.2,74.2,74.6,77.8,73.6,46,49,39,1.329,52.4,53.1,51.0,3.639,5.8,340,8.5,8.5,0.00045,0.00067,86.7,81.6,12,0,0,73.4,13.83,0.00,0.00
15min,AgWx,beryljct,423,08JUL2018:21:45:00,78.1,13.08,72.4,71.7,72.7,74.2,71.3,51,56,46,1.439,53.4,55.0,52.2,4.911,3.2,321,27,4.9,0.00011,0.00021,86.4,81.6,12,0,0,71.3,13.83,0.00,0.00
15min,AgWx,beryljct,423,08JUL2018:22:00:00,76.5,13.07,72.1,73.1,71.9,73.1,71.0,52,55,48,1.332,53.2,54.1,52.2,4.099,4.7,284,12,6.1,0.00025,0.00040,86.1,81.7,12,0,0,70.6,13.83,0.00,0.00
15min,AgWx,beryljct,423,08JUL2018:22:15:00,75.5,13.05,72.1,71.6,72.2,75.0,69.0,51,60,43,1.345,52.9,55.3,51.1,3.946,3.4,150,91,6.2,0.00013,0.00023,85.8,81.7,12,0,0,70.4,13.83,0.00,0.00
15min,AgWx,beryljct,423,08JUL2018:22:30:00,74.3,13.04,69.8,70.5,69.9,71.8,68.6,56,61,49,1.379,53.4,55.1,51.7,5.02,4.0,150,9.7,6.1,0.00015,0.00025,85.5,81.7,12,0,0,68.0,13.83,0.00,0.00
15min,AgWx,beryljct,423,08JUL2018:22:45:00,73.3,13.02,70.2,69.7,70.2,71.0,69.7,53,55,50,1.323,52.1,53.2,51.5,3.749,4.2,167,4.6,5.4,0.00019,0.00031,85.1,81.7,11,0,0,68.3,13.84,0.00,0.00
15min,AgWx,beryljct,423,08JUL2018:23:00:00,72.5,13.02,70.2,70.2,70.1,70.5,69.7,51,53,50,1.253,51.0,52.1,50.5,5.239,4.4,183,3.4,5.6,0.00022,0.00036,84.8,81.7,11,0,0,68.0,13.84,0.00,0.00
15min,AgWx,beryljct,423,08JUL2018:23:15:00,71.9,13.01,68.5,67.4,68.8,70.5,67.1,56,62,49,1.403,52.3,53.8,50.5,3.266,4.0,199,13,5.4,0.00015,0.00025,84.5,81.7,11,0,0,67.2,13.84,0.00,0.00
15min,AgWx,beryljct,423,08JUL2018:23:30:00,71.3,13.01,69.5,69.3,69.2,71.2,66.7,57,64,51,1.356,53.1,54.2,51.6,0,2.1,218,2.6,3.9,-0.00007,-0.00006,84.1,81.7,11,0,0,66.8,13.84,0.00,0.00
15min,AgWx,beryljct,423,08JUL2018:23:45:00,70.6,13.01,67.5,67.3,67.7,70.4,65.9,63,69,53,1.434,54.5,55.7,52.4,3.135,0.6,250,12,3.1,-0.00029,-0.00044,83.8,81.6,11,0,0,65.3,13.84,0.00,0.00
15min,AgWx,beryljct,423,09JUL2018:00:00:00,69.8,13,66.5,65.3,66.7,68.5,64.9,65,72,59,1.463,54.7,55.8,53.6,2.565,2.1,291,1.3,4.0,-0.00010,-0.00011,83.5,81.6,11,0,0,65.0,13.84,0.00,0.00
15min,AgWx,beryljct,423,09JUL2018:00:15:00,69.6,12.99,72.5,71.3,71.6,72.9,65.4,50,68,47,1.340,51.9,54.5,51.3,2.368,3.0,292,2.7,3.7,0.00008,0.00017,83.2,81.5,11,0,0,68.2,13.84,0.00,0.00
15min,AgWx,beryljct,423,09JUL2018:00:30:00,69.4,12.96,69.0,71.0,69.0,71.3,66.2,57,66,50,1.283,53.0,54.8,51.2,2.828,3.6,281,5.8,5.1,0.00010,0.00018,82.9,81.5,11,0,0,67.5,13.84,0.00,0.00
15min,AgWx,bigpiney,439,08JUL2018:00:00:00,60.4,12.85,57.2,56.2,56.3,58.5,54.1,54,63,47,0.796,39.6,42.0,38.2,0,3.2,252,45,4.4,0.00002,0.00007,57.6,54.9,54,0,0,0.0,.,0.00,0.00
15min,AgWx,bigpiney,439,08JUL2018:00:15:00,59.7,12.84,50.3,51.0,54.8,56.7,51.0,57,66,50,0.846,39.7,40.6,38.3,1.754,1.0,229,28,2.8,-0.00022,-0.00031,57.5,55.0,54,0,0,0.0,.,0.00,0.00
15min,AgWx,bigpiney,439,08JUL2018:00:30:00,58.7,12.83,54.8,54.8,53.1,55.2,50.8,65,72,58,0.897,41.5,43.2,39.8,1.184,1.9,280,16,2.9,-0.00014,-0.00017,57.5,55.0,54,0,0,0.0,.,0.00,0.00
15min,AgWx,bigpiney,439,08JUL2018:00:45:00,57.8,12.83,47.9,48.0,53.1,56.2,48.0,61,75,50,0.855,39.8,41.8,37.8,3.244,2.1,224,14,5.2,-0.00011,-0.00013,57.5,55.0,54,0,0,0.0,.,0.00,0.00
15min,AgWx,bigpiney,439,08JUL2018:01:00:00,56.8,12.81,47.0,47.3,47.5,48.0,47.1,76,77,75,0.845,40.4,40.7,40.2,2.214,2.7,215,5.3,3.6,-0.00012,-0.00014,57.4,55.0,54,0,0,0.0,.,0.00,0.00
15min,AgWx,bigpiney,439,08JUL2018:01:15:00,55.7,12.81,46.9,46.7,46.7,47.4,46.2,77,79,76,0.843,40.1,40.3,39.8,2.565,3.0,221,9.8,4.4,-0.00010,-0.00012,57.4,55.0,54,0,0,0.0,.,0.00,0.00
15min,AgWx,bigpiney,439,08JUL2018:01:30:00,54.7,12.79,47.9,48.2,48.0,48.7,46.7,74,78,72,0.840,40.2,41.0,39.7,0.767,0.7,246,23,2.5,-0.00025,-0.00037,57.3,55.0,54,0,0,0.0,.,0.00,0.00
15min,AgWx,bigpiney,439,08JUL2018:01:45:00,53.9,12.78,47.7,49.7,49.4,50.7,47.8,72,80,65,0.816,40.8,43.0,38.9,0,0.6,318,58,2.0,-0.00027,-0.00039,57.3,55.0,54,0,0,0.0,.,0.00,0.00
15min,AgWx,bigpiney,439,08JUL2018:02:00:00,53.3,12.77,45.2,44.8,47.3,49.6,44.5,75,81,67,0.817,39.7,40.8,39.1,1.403,1.8,178,55,4.3,-0.00016,-0.00021,57.2,55.1,54,0,0,0.0,.,0.00,0.00
15min,AgWx,bigpiney,439,08JUL2018:02:15:00,52.5,12.77,45.1,45.3,44.8,45.3,44.3,80,81,78,0.807,38.9,39.4,38.5,3.836,2.5,211,6.0,3.9,-0.00014,-0.00017,57.1,55.1,54,0,0,0.0,.,0.00,0.00
15min,AgWx,bigpiney,439,08JUL2018:02:30:00,51.8,12.76,47.2,45.9,44.6,45.9,43.9,82,88,79,0.851,39.5,41.4,38.6,1.447,2.6,236,44,4.0,-0.00014,-0.00017,57.0,55.0,54,0,0,0.0,.,0.00,0.00
15min,AgWx,bigpiney,439,08JUL2018:02:45:00,51.2,12.74,48.0,48.2,48.0,50.2,46.0,70,80,59,0.846,38.7,40.2,36.3,0,0.7,298,19,1.4,-0.00025,-0.00037,57.0,55.0,54,0,0,0.0,.,0.00,0.00
15min,AgWx,bigpiney,439,08JUL2018:03:00:00,50.8,12.74,42.9,43.6,47.0,48.6,43.6,75,85,67,0.818,39.5,40.3,38.1,2.74,1.2,170,39,3.1,-0.00021,-0.00029,56.9,55.0,54,0,0,0.0,.,0.00,0.00
15min,AgWx,bigpiney,439,08JUL2018:03:15:00,50.3,12.72,43.5,43.1,43.2,43.5,42.9,85,88,82,0.799,39.0,39.8,38.2,2.455,2.4,218,14,3.3,-0.00015,-0.00019,56.8,55.0,54,0,0,0.0,.,0.00,0.00
15min,AgWx,bigpiney,439,08JUL2018:03:30:00,49.8,12.72,43.4,43.3,43.4,43.8,43.0,84,86,83,0.795,39.0,39.9,38.3,2.872,1.6,196,23,3.3,-0.00019,-0.00025,56.7,55.0,54,0,0,0.0,.,0.00,0.00
15min,AgWx,bigpiney,439,08JUL2018:03:45:00,49.4,12.71,43.4,43.3,43.6,44.0,43.3,83,85,82,0.808,38.8,39.1,38.5,2.718,3.1,220,6.5,4.1,-0.00012,-0.00014,56.7,55.0,54,0,0,0.0,.,0.00,0.00
15min,AgWx,bigpiney,439,08JUL2018:04:00:00,49.0,12.7,44.3,44.1,43.8,44.4,43.3,84,86,81,0.798,39.2,39.5,38.8,2.894,2.3,234,6.1,3.2,-0.00015,-0.00019,56.6,55.0,54,0,0,0.0,.,0.00,0.00
15min,AgWx,bigpiney,439,08JUL2018:04:15:00,48.7,12.68,44.3,44.0,44.6,45.4,44.0,83,84,80,0.790,39.6,40.7,38.4,1.578,1.5,302,37,3.2,-0.00019,-0.00026,56.5,54.9,54,0,0,0.0,.,0.00,0.00
15min,AgWx,bigpiney,439,08JUL2018:04:30:00,48.5,12.67,45.0,44.5,44.2,44.7,43.7,80,82,76,0.804,38.3,39.0,37.5,0.022,0.1,324,0.2,1.4,-0.00030,-0.00047,56.4,54.9,54,0,0,0.0,.,0.00,0.00
15min,AgWx,bigpiney,439,08JUL2018:04:45:00,48.2,12.67,45.1,44.5,44.7,45.1,44.4,77,81,73,0.754,37.9,39.2,37.0,1.71,1.9,329,6.2,3.2,-0.00016,-0.00021,56.3,54.9,54,0,0,0.0,.,0.00,0.00
15min,AgWx,bigpiney,439,08JUL2018:05:00:00,47.9,12.66,46.2,45.4,44.9,45.5,44.3,74,78,72,0.763,37.2,38.0,36.7,2.258,1.8,317,9.3,2.7,-0.00016,-0.00021,56.2,54.9,54,0,0,0.0,.,0.00,0.00
15min,AgWx,bigpiney,439,08JUL2018:05:15:00,47.6,12.64,45.1,44.7,45.1,45.7,44.7,78,80,73,0.798,38.6,39.2,37.5,2.192,2.3,290,17,2.9,-0.00014,-0.00017,56.1,54.9,54,0,0,0.0,.,0.00,0.00
15min,AgWx,bigpiney,439,08JUL2018:05:30:00,47.5,12.63,46.2,45.4,44.9,45.5,44.6,78,80,76,0.785,38.6,39.0,38.2,0.526,0.6,285,4.3,2.5,-0.00025,-0.00037,56.1,54.9,54,0,0,0.0,.,0.00,0.00
15min,AgWx,bigpiney,439,08JUL2018:05:45:00,47.2,12.63,42.3,42.1,43.3,45.8,42.1,82,85,76,0.768,38.1,39.5,37.4,2.148,1.9,241,16,2.7,-0.00016,-0.00021,56.0,54.9,54,1,0,0.0,.,0.00,0.00
15min,AgWx,bigpiney,439,08JUL2018:06:00:00,46.8,12.63,44.3,43.7,42.8,43.7,42.0,86,89,82,0.861,38.9,40.8,37.4,1.162,1.9,247,17,3.0,-0.00017,-0.00022,55.9,54.8,54,5,0,0.0,.,0.00,0.00
15min,AgWx,bigpiney,439,08JUL2018:06:15:00,46.5,12.64,46.3,45.4,44.4,45.9,43.3,85,89,76,0.866,40.2,41.2,38.6,1.885,0.9,248,9.8,1.9,-0.00035,-0.00036,55.8,54.9,54,26,0,0.0,.,0.00,0.00
15min,AgWx,bigpiney,439,08JUL2018:06:30:00,46.6,12.67,46.7,46.2,45.8,46.4,45.3,81,84,78,0.840,40.3,40.8,39.8,1.995,1.8,249,4.6,2.6,-0.00016,-0.00012,55.7,54.8,54,53,0,0.0,.,0.00,0.00
15min,AgWx,bigpiney,439,08JUL2018:06:45:00,47.1,12.67,45.9,45.5,45.3,46.4,44.8,81,83,77,0.844,39.8,40.3,39.3,2.74,2.1,207,20,3.2,0.00002,0.00008,55.6,54.8,54,85,0,0.0,.,0.00,0.00